ZY 1

Satellite information

Favourite Embed

Satellite Type and Status

PAYLOADIN ORBIT

Key statistics

Satellite ZY 1 at a glance.

Uptime

4886

Days in orbit

Revolutions

≈ 14.4

Per day

Orbit

SSO

Sun Synchronous Orbit

Inclination

98.5

Latest

Satellite identification and parameters

Extended collection of information and parameters for ZY 1.

Object identification

Identified? True

Debris? False

Object name: ZY 1

International designator: 2011-079A

Object number (NORAD): 38038

Object ID (CCSDS): 38038

Country: PEOPLES REPUBLIC OF CHINA (PRC)

Current information (Y/N): Y

RCS size: LARGE

Orbital parameters

Period: 100.158 minutes

Inclination: 98.4544 deg

SMA: 7144.134 km

Apoapsis: 771.502 km

Periapsis: 760.496 km

RAAN: 197.7393 deg

Eccentricy: 0.0007703

Argument of periapsis: 82.6188 deg

Mean anomaly: 42.2035 deg

Mean motion: 14.37733423 rev/day

Mean motion (dot): 0.00000576 rev/day2

B* drag term: 0.00020565 1/REarth

Two-line elements (TLE)

Creation date: May 8, 2025, 3:01 a.m.

Reference frame: TEME

Reference center: EARTH

Epoch: May 7, 2025, 11:30 p.m. UTC

TLE line 0: 0 ZY 1

TLE line 1: 1 38038U 11079A 25127.97979344 .00000576 00000-0 20565-3 0 9998

TLE line 2: 2 38038 98.4544 197.7393 0007703 82.6188 42.2035 14.37733423700973

Live tracking on map

Real-time ground track for satellite ZY 1.

In-orbit conjunctions

There are no conjunctions computed for ZY 1, at the moment. Check back to stay up to date, as we update our databases every day.

Go to all conjunctions

Associated space launch

ZY 1 was lifted into orbit during the mission ‘Long March 4B | Zi Yuan 1-02C’, on board a Long March 4B space rocket.

The launch took place on Dec. 22, 2011, 3:26 a.m. from Launch Complex 7.

For more information about the launch, click the button.

Launch to space Long March 4B | Zi Yuan 1-02C
Long March 4B | Zi Yuan 1-02C

Agency: N/A

Status: Launch Successful

Launch date: Dec. 22, 2011, 3:26 a.m. UTC

Rocket: Long March 4B

Launch pad: Launch Complex 7

Location: Taiyuan Satellite Launch Center, People's Republic of China

...

Latest news about this satellite

There are no fresh news available about this satellite. Check back as we update our databases every day.


Newsletter sign-up

Weekly statistics, charts and insights to help you stay on top of the space industry.